DW3248 Weather Reports


time (UTC)temp
C
wind
direction
speed
KPH
gust
KPH
rain 1hr
cm
rain 24hr
cm
rain mn
cm
humidity
%
barometer
mb
20260506145623 14 46 11.3 22.5 0.00 0.00 0.00 50 1010.0
20260506145124 14 42 8.0 19.3 0.00 0.00 0.00 50 1009.9
20260506144623 14 16 8.0 19.3 0.00 0.00 0.00 51 1009.9
20260506144126 14 0 8.0 17.7 0.00 0.00 0.00 50 1009.9
20260506143623 14 29 9.7 22.5 0.00 0.00 0.00 51 1009.9
20260506143128 14 22 8.0 17.7 0.00 0.00 0.00 51 1009.9
20260506142623 14 40 8.0 19.3 0.00 0.00 0.00 49 1009.9
20260506142126 14 26 9.7 29.0 0.00 0.00 0.00 49 1009.9
20260506141623 14 27 11.3 20.9 0.00 0.00 0.00 49 1009.9
20260506141126 14 12 11.3 30.6 0.00 0.00 0.00 49 1009.9
20260506140623 15 359 11.3 27.4 0.00 0.00 0.00 47 1009.9
20260506140126 15 36 11.3 25.7 0.00 0.00 0.00 50 1009.9
20260506134127 15 53 9.7 19.3 0.00 0.00 0.00 50 1009.8
20260506133623 15 16 11.3 24.1 0.00 0.00 0.00 51 1009.8
20260506133127 14 11 12.9 25.7 0.00 0.00 0.00 50 1009.8
20260506132624 14 7 9.7 19.3 0.00 0.00 0.00 50 1009.8
20260506131623 14 29 11.3 25.7 0.00 0.00 0.00 50 1009.8
20260506131126 14 44 9.7 25.7 0.00 0.00 0.00 49 1009.8
20260506130124 14 42 11.3 24.1 0.00 0.00 0.00 51 1009.7
20260506125623 14 56 12.9 27.4 0.00 0.00 0.00 49 1009.7
20260506125124 14 43 8.0 20.9 0.00 0.00 0.00 53 1009.7
20260506124623 14 60 12.9 25.7 0.00 0.00 0.00 52 1009.7
20260506124126 14 14 6.4 19.3 0.00 0.00 0.00 53 1009.7
20260506123623 14 1 14.5 30.6 0.00 0.00 0.00 53 1009.6
20260506123125 14 18 9.7 17.7 0.00 0.00 0.00 52 1009.6
20260506122623 14 23 9.7 24.1 0.00 0.00 0.00 52 1009.6
20260506122126 13 26 9.7 22.5 0.00 0.00 0.00 52 1009.6
20260506121623 13 41 9.7 19.3 0.00 0.00 0.00 51 1009.6
20260506120623 13 3 11.3 22.5 0.00 0.00 0.00 54 1009.6
20260506120127 14 25 12.9 29.0 0.00 0.00 0.00 53 1009.5
20260506115126 13 18 9.7 22.5 0.00 0.00 0.00 56 1009.5
20260506114623 13 6 14.5 29.0 0.00 0.00 0.00 57 1009.6
20260506114125 13 1 12.9 27.4 0.00 0.00 0.00 57 1009.6
20260506113623 13 353 12.9 24.1 0.00 0.00 0.00 56 1009.6
20260506113126 13 355 14.5 27.4 0.00 0.00 0.00 57 1009.6
20260506112623 13 348 14.5 27.4 0.00 0.00 0.00 56 1009.5
20260506112126 13 4 14.5 30.6 0.00 0.00 0.00 56 1009.6
20260506111623 14 24 11.3 20.9 0.00 0.00 0.00 56 1009.5
20260506110126 13 356 11.3 29.0 0.00 0.00 0.00 59 1009.5
20260506105625 13 355 17.7 33.8 0.00 0.00 0.00 60 1009.5
20260506104623 13 359 14.5 29.0 0.00 0.00 0.00 68 1009.5
20260506104124 13 1 11.3 24.1 0.00 0.00 0.00 68 1009.5
20260506103623 13 2 16.1 30.6 0.00 0.00 0.00 69 1009.5
20260506102623 13 355 16.1 32.2 0.00 0.00 0.00 71 1009.5
20260506102126 13 357 11.3 22.5 0.00 0.00 0.00 71 1009.4
20260506101623 13 2 14.5 27.4 0.00 0.00 0.00 71 1009.4
20260506101126 13 352 14.5 27.4 0.00 0.00 0.00 71 1009.5
20260506100623 12 357 17.7 29.0 0.00 0.00 0.00 71 1009.4
20260506100126 13 359 14.5 27.4 0.00 0.00 0.00 72 1009.4
20260506095623 12 356 14.5 37.0 0.00 0.00 0.00 73 1009.3
20260506095126 13 353 12.9 33.8 0.00 0.00 0.00 74 1009.4
20260506094623 13 360 16.1 27.4 0.00 0.00 0.00 73 1009.4
20260506094125 13 4 17.7 33.8 0.00 0.00 0.00 73 1009.3
20260506093623 13 3 14.5 29.0 0.00 0.00 0.00 75 1009.3
20260506093127 13 357 16.1 29.0 0.00 0.00 0.00 75 1009.3
20260506092623 13 357 14.5 33.8 0.00 0.00 0.00 75 1009.2
20260506092127 13 4 14.5 32.2 0.00 0.00 0.00 75 1009.2
20260506091623 13 8 14.5 32.2 0.00 0.00 0.00 74 1009.2
20260506091127 13 357 12.9 29.0 0.00 0.00 0.00 75 1009.2
20260506090624 13 1 14.5 33.8 0.00 0.00 0.00 75 1009.2
20260506085623 12 2 12.9 30.6 0.00 0.00 0.00 78 1009.2
20260506084623 12 357 14.5 32.2 0.00 0.00 0.00 78 1009.2
20260506083623 12 356 12.9 24.1 0.00 0.00 0.00 77 1009.1
20260506083125 13 16 9.7 24.1 0.00 0.00 0.00 77 1009.1
20260506082126 12 356 12.9 27.4 0.00 0.00 0.00 76 1009.0
20260506081623 12 8 12.9 20.9 0.00 0.00 0.00 77 1009.0
20260506081126 12 351 12.9 27.4 0.00 0.00 0.00 78 1009.0
20260506080623 12 356 16.1 27.4 0.00 0.00 0.00 78 1009.0
20260506080124 12 12 11.3 29.0 0.00 0.00 0.00 76 1008.9
20260506073126 11 2 9.7 20.9 0.00 0.00 0.00 84 1008.8
20260506072623 11 350 9.7 19.3 0.00 0.00 0.00 84 1008.8
20260506071623 11 344 12.9 24.1 0.00 0.00 0.00 83 1008.8
20260506071125 11 356 9.7 20.9 0.00 0.00 0.00 83 1008.8
20260506070623 11 348 8.0 20.9 0.00 0.00 0.00 83 1008.8
20260506062125 11 1 14.5 30.6 0.00 0.00 0.00 85 1008.6
20260506061623 11 353 11.3 22.5 0.00 0.00 0.00 85 1008.6
20260506061127 11 355 11.3 17.7 0.00 0.00 0.00 85 1008.5
20260506060623 10 351 9.7 24.1 0.00 0.00 0.00 85 1008.5
20260506060125 10 348 12.9 22.5 0.00 0.00 0.00 85 1008.5
20260506050623 10 353 12.9 24.1 0.00 0.00 0.00 85 1008.4
20260506045127 10 352 11.3 24.1 0.00 0.00 0.00 85 1008.5
20260506044126 10 352 12.9 20.9 0.00 0.00 0.00 85 1008.5
20260506043625 10 352 12.9 24.1 0.00 0.00 0.00 85 1008.6
20260506043125 10 352 12.9 22.5 0.00 0.00 0.00 85 1008.6
20260506042625 10 353 11.3 24.1 0.00 0.00 0.00 85 1008.6
20260506042126 10 351 11.3 24.1 0.00 0.00 0.00 85 1008.6
20260506041623 10 350 14.5 25.7 0.00 0.00 0.00 85 1008.6
20260506041127 10 352 14.5 22.5 0.00 0.00 0.00 84 1008.6
20260506040127 10 341 11.3 22.5 0.00 0.00 0.00 84 1008.7
20260506035623 10 348 14.5 22.5 0.00 0.00 0.00 84 1008.7
20260506035128 10 350 16.1 25.7 0.00 0.00 0.00 84 1008.6
20260506034623 10 359 12.9 25.7 0.00 0.00 0.00 84 1008.6
20260506034128 10 352 12.9 24.1 0.00 0.00 0.00 84 1008.7
20260506033623 10 2 12.9 24.1 0.00 0.00 0.00 84 1008.7
20260506033128 10 2 9.7 19.3 0.00 0.00 0.00 84 1008.7
20260506032623 10 352 11.3 27.4 0.00 0.00 0.00 84 1008.7
20260506032126 10 0 12.9 24.1 0.00 0.00 0.00 83 1008.7
20260506031623 10 357 16.1 33.8 0.00 0.00 0.00 83 1008.7
20260506031126 10 346 14.5 24.1 0.00 0.00 0.00 83 1008.8
20260506030623 10 357 12.9 24.1 0.00 0.00 0.00 83 1008.8
20260506025623 10 346 11.3 22.5 0.00 0.00 0.00 82 1008.9
20260506025126 10 356 11.3 25.7 0.00 0.00 0.00 83 1009.0
20260506024124 10 352 9.7 19.3 0.00 0.00 0.00 82 1009.0
20260506023623 10 359 8.0 19.3 0.00 0.00 0.00 82 1009.0
20260506023125 10 355 9.7 19.3 0.00 0.00 0.00 82 1009.0
20260506022623 10 358 9.7 19.3 0.00 0.00 0.00 82 1009.0
20260506022127 10 349 9.7 25.7 0.00 0.00 0.00 83 1009.0
20260506021623 10 354 11.3 25.7 0.00 0.00 0.00 83 1009.0
20260506021126 10 339 8.0 19.3 0.00 0.00 0.00 83 1009.0
20260506020623 10 2 9.7 17.7 0.00 0.00 0.00 83 1009.1
20260506020127 10 352 9.7 17.7 0.00 0.00 0.00 84 1009.0
20260506015125 10 349 11.3 24.1 0.00 0.00 0.00 84 1009.1
20260506014623 10 354 12.9 25.7 0.00 0.00 0.00 84 1009.1
20260506014128 10 352 12.9 22.5 0.00 0.00 0.00 84 1009.1
20260506013623 10 353 11.3 24.1 0.00 0.00 0.00 84 1009.1
20260506012623 10 348 9.7 22.5 0.00 0.00 0.00 84 1009.1
20260506012129 10 341 11.3 22.5 0.00 0.00 0.00 84 1009.1
20260506011623 10 353 11.3 25.7 0.00 0.00 0.00 84 1009.2
20260506011127 10 354 14.5 25.7 0.00 0.00 0.00 84 1009.2
20260506010623 10 348 14.5 27.4 0.00 0.00 0.00 84 1009.3
20260506010126 10 346 11.3 24.1 0.00 0.00 0.00 84 1009.3
20260506005623 10 347 11.3 24.1 0.00 0.00 0.00 84 1009.3
20260506005126 10 348 11.3 25.7 0.00 0.00 0.00 83 1009.4
20260506003623 10 359 9.7 24.1 0.00 0.00 0.00 83 1009.6
20260506003126 10 340 8.0 19.3 0.00 0.00 0.00 82 1009.6
20260506002623 10 350 6.4 17.7 0.00 0.00 0.00 82 1009.7
20260506002129 10 353 8.0 14.5 0.00 0.00 0.00 81 1009.7
20260506001623 10 350 12.9 25.7 0.00 0.00 0.00 81 1009.7
20260506001126 10 345 9.7 22.5 0.00 0.00 0.00 81 1009.8
20260506000623 10 6 11.3 22.5 0.00 0.00 0.00 81 1009.8
20260506000127 10 358 11.3 25.7 0.00 0.00 0.00 81 1009.8
20260505235623 10 2 11.3 25.7 0.00 0.00 0.00 81 1009.8
20260505235127 10 2 12.9 22.5 0.00 0.00 0.00 81 1009.8
20260505234623 10 345 11.3 24.1 0.00 0.00 0.00 81 1009.9
20260505234128 10 356 12.9 27.4 0.00 0.00 0.00 81 1009.9
20260505233623 10 356 11.3 19.3 0.00 0.00 0.00 81 1010.0
20260505233126 10 7 11.3 29.0 0.00 0.00 0.00 81 1010.0
20260505232127 10 359 14.5 27.4 0.00 0.00 0.00 81 1010.1
20260505231623 10 351 14.5 25.7 0.00 0.00 0.00 81 1010.1
20260505231126 10 349 11.3 24.1 0.00 0.00 0.00 81 1010.2
20260505230623 10 3 11.3 22.5 0.00 0.00 0.00 81 1010.2
20260505230127 10 353 11.3 22.5 0.00 0.00 0.00 82 1010.2
20260505225623 10 348 8.0 16.1 0.00 0.00 0.00 83 1010.2
20260505225126 10 356 9.7 22.5 0.00 0.00 0.00 82 1010.2
20260505224623 10 355 12.9 20.9 0.00 0.00 0.00 82 1010.1
20260505224125 10 355 11.3 24.1 0.00 0.00 0.00 82 1010.2
20260505223623 10 349 12.9 24.1 0.00 0.00 0.00 82 1010.2
20260505223125 10 344 11.3 25.7 0.00 0.00 0.00 81 1010.3
20260505222623 10 350 9.7 25.7 0.00 0.00 0.00 81 1010.3
20260505222126 10 340 9.7 25.7 0.00 0.00 0.00 80 1010.3
20260505221623 10 349 12.9 24.1 0.00 0.00 0.00 79 1010.4
20260505221127 10 354 11.3 24.1 0.00 0.00 0.00 78 1010.5
20260505220623 10 344 14.5 33.8 0.00 0.00 0.00 78 1010.4
20260505220127 10 347 12.9 29.0 0.00 0.00 0.00 77 1010.5
20260505215623 10 345 11.3 20.9 0.00 0.00 0.00 77 1010.5
20260505215126 10 359 8.0 20.9 0.00 0.00 0.00 77 1010.5
20260505214623 10 356 11.3 24.1 0.00 0.00 0.00 76 1010.5
20260505214126 10 354 12.9 20.9 0.00 0.00 0.00 76 1010.6
20260505213624 11 2 11.3 19.3 0.00 0.00 0.00 76 1010.6
20260505213125 11 4 11.3 24.1 0.00 0.00 0.00 75 1010.7
20260505212623 11 351 11.3 27.4 0.00 0.00 0.00 75 1010.7
20260505212127 11 2 9.7 24.1 0.00 0.00 0.00 75 1010.7
20260505211623 11 14 12.9 30.6 0.00 0.00 0.00 75 1010.7
20260505211126 11 8 11.3 20.9 0.00 0.00 0.00 75 1010.7
20260505210623 11 9 11.3 22.5 0.00 0.00 0.00 75 1010.7
20260505205126 11 7 12.9 27.4 0.00 0.00 0.00 74 1010.8
20260505204624 11 7 16.1 30.6 0.00 0.00 0.00 73 1010.8
20260505204127 11 3 11.3 22.5 0.00 0.00 0.00 73 1010.8
20260505203126 10 2 11.3 25.7 0.00 0.00 0.00 73 1010.8
20260505202624 11 358 12.9 30.6 0.00 0.00 0.00 72 1010.8
20260505202131 10 1 14.5 27.4 0.00 0.00 0.00 72 1010.8
20260505201126 11 1 9.7 19.3 0.00 0.00 0.00 73 1010.9
20260505200624 11 9 9.7 20.9 0.00 0.00 0.00 73 1010.8
20260505200129 11 16 8.0 17.7 0.00 0.00 0.00 74 1010.7
20260505195128 11 345 11.3 24.1 0.00 0.00 0.00 74 1010.6
20260505194624 11 353 16.1 30.6 0.00 0.00 0.00 74 1010.5
20260505194126 11 342 11.3 20.9 0.00 0.00 0.00 75 1010.5
20260505193623 11 352 12.9 24.1 0.00 0.00 0.00 75 1010.4
20260505193127 11 350 14.5 29.0 0.00 0.00 0.00 74 1010.4
20260505191623 11 347 14.5 29.0 0.00 0.00 0.00 74 1010.3
20260505191130 11 3 9.7 19.3 0.00 0.00 0.00 73 1010.3
20260505190623 11 5 14.5 29.0 0.00 0.00 0.00 73 1010.2
20260505190126 11 354 12.9 24.1 0.00 0.00 0.00 73 1010.2
20260505185623 11 360 11.3 25.7 0.00 0.00 0.00 74 1010.2
20260505185126 11 0 12.9 30.6 0.00 0.00 0.00 73 1010.2
20260505184128 11 348 12.9 35.4 0.00 0.00 0.00 74 1010.2
20260505183623 11 359 11.3 22.5 0.00 0.00 0.00 74 1010.1
20260505181125 11 1 11.3 22.5 0.00 0.00 0.00 74 1010.1
20260505174624 12 356 12.9 24.1 0.00 0.00 0.00 73 1010.2
20260505174126 12 352 9.7 19.3 0.00 0.00 0.00 74 1010.2
20260505173127 12 16 11.3 25.7 0.00 0.00 0.00 73 1010.2
20260505172623 12 358 14.5 30.6 0.00 0.00 0.00 72 1010.3
20260505172126 12 2 11.3 25.7 0.00 0.00 0.00 72 1010.3
20260505171623 12 13 9.7 27.4 0.00 0.00 0.00 72 1010.3
20260505171126 12 356 12.9 24.1 0.00 0.00 0.00 71 1010.2
20260505170624 12 3 12.9 27.4 0.00 0.00 0.00 71 1010.3
20260505170125 12 347 12.9 22.5 0.00 0.00 0.00 71 1010.2
20260505165624 12 5 12.9 24.1 0.00 0.00 0.00 71 1010.2
20260505165126 12 358 11.3 25.7 0.00 0.00 0.00 72 1010.2
20260505164127 13 359 11.3 20.9 0.00 0.00 0.00 71 1010.3
20260505163623 13 349 9.7 19.3 0.00 0.00 0.00 71 1010.3
20260505163127 12 3 12.9 24.1 0.00 0.00 0.00 71 1010.3
20260505162625 12 358 16.1 27.4 0.00 0.00 0.00 71 1010.3
20260505162125 12 351 14.5 29.0 0.00 0.00 0.00 70 1010.3
20260505161624 12 350 16.1 30.6 0.00 0.00 0.00 70 1010.3
20260505161126 12 13 11.3 22.5 0.00 0.00 0.00 70 1010.4
20260505160624 13 4 9.7 22.5 0.00 0.00 0.00 71 1010.4
20260505160127 12 1 11.3 24.1 0.00 0.00 0.00 71 1010.4
20260505152623 13 354 12.9 27.4 0.00 0.00 0.00 70 1010.4
20260505152127 13 352 16.1 27.4 0.00 0.00 0.00 69 1010.5
20260505151624 13 352 16.1 30.6 0.00 0.00 0.00 68 1010.5
20260505151126 13 353 17.7 30.6 0.00 0.00 0.00 68 1010.5
20260505150625 13 357 12.9 32.2 0.00 0.00 0.00 68 1010.5